User: anonymous   Login
Location: Deuil
(48.9767°N, 2.3272°E)
Time: 01:48:54
(UTC+00:00)
Language:

Meteor 1-18 Rocket - Orbit

View from above orbital plane
View from above orbital plane
View from above satellite
View from above satellite

Ground track
Ground track

The orbit data is extracted from the following two-line orbital elements,

1 07364U 74052B   22226.23063096  .00000019  00000-0  43120-5 0  9996
2 07364  81.2324 123.6655 0048698 250.4842 109.1063 14.06077563465880
Epoch (UTC): 14 August 2022 05:32:06
Eccentricity: 0.0048698
inclination: 81.2324°
perigee height: 837 km
apogee height: 908 km
right ascension of ascending node: 123.6655°
argument of perigee: 250.4842°
revolutions per day: 14.06077563
mean anomaly at epoch: 109.1063°
orbit number at epoch: 46588

The dashed part of the orbit path shows where the satellite is in the earth's shadow,  

DLR